Regional Weather Roundup
Issued by NWS

Home | Current Version | Previous Version | Graphics & Text | Print | Product List | Glossary On
Versions: 1 2 3 4 5 6 7 8 9 10 11 12 13 14 15 16 17 18 19 20 21 22 23 24 25 26 27 28 29 30 31 32 33 34 35 36 37 38 39 40 41 42 43 44 45 46 47 48 49 50
795
ASUS43 KTOP 272059
RWRKS

WEATHER ROUNDUP FOR KANSAS
NATIONAL WEATHER SERVICE GOODLAND KS
400 PM CDT TUE SEP 27 2016

NOTE:  "FAIR" INDICATES FEW OR NO CLOUDS BELOW 12,000 FEET WITH NO
SIGNIFICANT WEATHER AND/OR OBSTRUCTIONS TO VISIBILITY.

KSZ001>006-013>018-027>032-041>047-272200-
NORTHWEST KANSAS

CITY           SKY/WX    TMP DP  RH WIND       PRES   REMARKS
GOODLAND       SUNNY     84  34  16 SW9       30.05F
HAYS           SUNNY     86  45  23 NW10      29.98F
HILL CITY      SUNNY     84  50  30 SW6       29.99F HAZE
RUSSELL        SUNNY     84  47  27 W13       29.96F
$$

KSZ061>065-074>080-084>089-272200-
SOUTHWEST KANSAS

CITY           SKY/WX    TMP DP  RH WIND       PRES   REMARKS
DODGE CITY     SUNNY     88  36  15 W10       30.02F
ELKHART          N/A     86  41  20 E3          N/A
GARDEN CITY    SUNNY     85  36  17 N8        30.03F
GREAT BEND     SUNNY     86  43  22 W9G18     29.97F
LIBERAL        SUNNY     86  37  17 W7        30.05F
$$

KSZ066>073-081>083-090>101-272200-
SOUTHEAST KANSAS

CITY           SKY/WX    TMP DP  RH WIND       PRES   REMARKS
CHANUTE        SUNNY     81  52  36 SW12      29.95F HAZE
COFFEYVILLE    SUNNY     83  49  30 SW13      29.96F
HUTCHINSON     SUNNY     86  46  24 NW9       29.96F
MEDICINE LODGE   N/A     84  49  29 S8        29.97F
PARSONS        SUNNY     81  50  33 S9        29.97F
WICHITA INTL   MOSUNNY   81  52  36 SW3       29.97F
WICHITA JABRA  SUNNY     81  52  36 NW7       29.97F
WINFIELD       SUNNY     81  54  39 SW7       29.99F
$$

KSZ007>012-019>026-033>040-048>060-102>105-272200-
NORTHEAST KANSAS

CITY           SKY/WX    TMP DP  RH WIND       PRES   REMARKS
CONCORDIA      SUNNY     83  46  27 W7        29.94F
EMPORIA        SUNNY     82  50  32 W8        29.94F
LAWRENCE       SUNNY     80  53  39 W13       29.91F
MANHATTAN      SUNNY     82  51  34 W8        29.92F
OLATHE IND     SUNNY     79  51  37 W9        29.93F
OLATHE EXE     SUNNY     78  47  33 W9        29.92F
SALINA         SUNNY     86  48  26 W15       29.95F
TOPEKA BILLARD SUNNY     81  49  32 SW8       29.91F
TOPEKA FORBES  SUNNY     83  52  34 W8        29.92F
$$




USA.gov is the U.S. government's official web portal to all federal, state and local government web resources and services.